FW7863 Weather Reports


time (UTC)temp
C
wind
direction
speed
KPH
gust
KPH
rain 1hr
cm
rain 24hr
cm
rain mn
cm
humidity
%
barometer
mb
20260505035514 15 145 0.0 1.6 0.00 0.00 0.00 72 1010.2
20260505035011 15 143 0.0 0.0 0.00 0.00 0.00 72 1010.3
20260505034507 15 154 0.0 1.6 0.00 0.00 0.00 73 1010.2
20260505034004 15 144 0.0 0.0 0.00 0.00 0.00 72 1010.1
20260505033501 15 149 4.8 4.8 0.00 0.00 0.00 71 1010.0
20260505032959 15 149 0.0 1.6 0.00 0.00 0.00 71 1009.9
20260505032456 15 148 1.6 1.6 0.00 0.00 0.00 71 1010.0
20260505031952 15 153 1.6 1.6 0.00 0.00 0.00 71 1009.9
20260505031449 15 149 1.6 3.2 0.00 0.00 0.00 70 1010.0
20260505030946 15 154 1.6 1.6 0.00 0.00 0.00 70 1009.9
20260505030442 16 149 0.0 3.2 0.00 0.00 0.00 70 1010.2
20260505025938 16 142 0.0 3.2 0.00 0.00 0.00 69 1010.6
20260505025435 16 169 0.0 1.6 0.00 0.00 0.00 70 1010.2
20260505024934 16 144 0.0 1.6 0.00 0.00 0.00 69 1010.0
20260505024431 16 164 0.0 1.6 0.00 0.00 0.00 68 1010.3
20260505023928 16 149 1.6 3.2 0.00 0.00 0.00 69 1010.5
20260505023425 16 179 1.6 3.2 0.00 0.00 0.00 68 1010.5
20260505022922 16 172 0.0 4.8 0.00 0.00 0.00 67 1010.4
20260505022420 16 152 0.0 1.6 0.00 0.00 0.00 67 1010.5
20260505021917 16 166 0.0 1.6 0.00 0.00 0.00 67 1010.3
20260505021413 16 159 0.0 1.6 0.00 0.00 0.00 66 1010.5
20260505020909 16 159 1.6 1.6 0.00 0.00 0.00 65 1010.4
20260505020404 16 144 0.0 1.6 0.00 0.00 0.00 65 1010.5
20260505015902 16 157 0.0 1.6 0.00 0.00 0.00 64 1010.6
20260505015359 16 152 0.0 1.6 0.00 0.00 0.00 63 1010.4
20260505014856 16 137 0.0 0.0 0.00 0.00 0.00 61 1010.5
20260505014353 16 146 0.0 0.0 0.00 0.00 0.00 60 1010.6
20260505013849 16 146 1.6 3.2 0.00 0.00 0.00 59 1010.4
20260505013346 16 142 0.0 0.0 0.00 0.00 0.00 60 1010.5
20260505012845 16 147 0.0 0.0 0.00 0.00 0.00 59 1010.1
20260505012343 16 147 0.0 0.0 0.00 0.00 0.00 58 1010.2
20260505011838 16 148 0.0 0.0 0.00 0.00 0.00 57 1010.3
20260505011335 16 145 0.0 0.0 0.00 0.00 0.00 58 1010.0
20260505010831 16 150 0.0 0.0 0.00 0.00 0.00 57 1010.1
20260505010327 16 142 0.0 0.0 0.00 0.00 0.00 57 1009.9
20260505005823 16 147 0.0 0.0 0.00 0.00 0.00 57 1009.9
20260505005320 17 137 0.0 0.0 0.00 0.00 0.00 56 1010.0
20260505004818 17 136 0.0 0.0 0.00 0.00 0.00 54 1010.0
20260505004314 17 150 0.0 0.0 0.00 0.00 0.00 54 1009.7
20260505003812 17 129 0.0 0.0 0.00 0.00 0.00 54 1009.9
20260505003309 17 144 0.0 0.0 0.00 0.00 0.00 53 1010.0
20260505002805 17 145 0.0 0.0 0.00 0.00 0.00 52 1009.9
20260505002304 17 147 0.0 0.0 0.00 0.00 0.00 52 1009.8
20260505001800 18 144 0.0 1.6 0.00 0.00 0.00 51 1009.6
20260505001257 18 146 0.0 0.0 0.00 0.00 0.00 52 1009.8
20260505000754 18 148 0.0 1.6 0.00 0.00 0.00 51 1009.6
20260505000252 18 156 0.0 1.6 0.00 0.00 0.00 50 1009.5
20260504235748 18 148 0.0 0.0 0.00 0.00 0.00 49 1009.5
20260504235245 18 139 0.0 3.2 0.00 0.00 0.00 49 1009.4
20260504234742 18 142 0.0 0.0 0.00 0.00 0.00 47 1009.5
20260504234239 19 141 0.0 0.0 0.00 0.00 0.00 48 1009.4
20260504233735 19 146 0.0 0.0 0.00 0.00 0.00 47 1009.6
20260504233231 20 147 0.0 0.0 0.00 0.00 0.00 46 1009.5
20260504232729 20 148 0.0 0.0 0.00 0.00 0.00 45 1009.4
20260504232226 20 182 1.6 3.2 0.00 0.00 0.00 41 1009.4
20260504231722 20 155 0.0 1.6 0.00 0.00 0.00 42 1009.5
20260504231219 21 140 1.6 1.6 0.00 0.00 0.00 40 1009.6
20260504230715 21 150 0.0 3.2 0.00 0.00 0.00 40 1009.4
20260504230214 21 170 0.0 1.6 0.00 0.00 0.00 39 1009.4
20260504225712 21 105 0.0 1.6 0.00 0.00 0.00 39 1009.5
20260504225208 21 153 1.6 4.8 0.00 0.00 0.00 38 1009.7
20260504224705 21 157 0.0 1.6 0.00 0.00 0.00 39 1009.5
20260504224202 22 310 4.8 9.7 0.00 0.00 0.00 36 1009.3
20260504223659 22 127 1.6 12.9 0.00 0.00 0.00 39 1009.5
20260504223154 22 187 4.8 9.7 0.00 0.00 0.00 36 1009.4
20260504222651 22 140 3.2 3.2 0.00 0.00 0.00 34 1009.2
20260504222148 23 159 1.6 1.6 0.00 0.00 0.00 34 1009.3
20260504221646 22 151 1.6 3.2 0.00 0.00 0.00 35 1009.4
20260504221143 23 169 4.8 9.7 0.00 0.00 0.00 34 1009.3
20260504220639 23 169 0.0 3.2 0.00 0.00 0.00 34 1009.3
20260504220137 23 140 0.0 4.8 0.00 0.00 0.00 35 1009.6
20260504215632 23 199 1.6 8.0 0.00 0.00 0.00 34 1009.4
20260504215130 23 253 4.8 8.0 0.00 0.00 0.00 34 1009.4
20260504214625 23 161 1.6 3.2 0.00 0.00 0.00 34 1009.5
20260504214117 23 163 1.6 4.8 0.00 0.00 0.00 33 1009.4
20260504213613 23 198 1.6 4.8 0.00 0.00 0.00 33 1009.6
20260504213110 23 147 0.0 1.6 0.00 0.00 0.00 34 1009.3
20260504212606 23 210 4.8 11.3 0.00 0.00 0.00 33 1009.5
20260504212104 23 359 3.2 8.0 0.00 0.00 0.00 33 1009.6
20260504211600 23 81 4.8 8.0 0.00 0.00 0.00 32 1009.4
20260504211057 23 97 1.6 4.8 0.00 0.00 0.00 33 1009.4
20260504210555 23 245 4.8 11.3 0.00 0.00 0.00 32 1009.4
20260504210051 23 168 3.2 14.5 0.00 0.00 0.00 33 1009.5
20260504205549 23 138 1.6 9.7 0.00 0.00 0.00 32 1009.6
20260504205047 23 169 1.6 11.3 0.00 0.00 0.00 33 1009.4
20260504204544 23 226 1.6 3.2 0.00 0.00 0.00 32 1009.4
20260504204043 23 258 11.3 14.5 0.00 0.00 0.00 31 1009.6
20260504203541 23 240 4.8 8.0 0.00 0.00 0.00 32 1009.4
20260504203038 23 331 4.8 8.0 0.00 0.00 0.00 31 1009.5
20260504202533 24 183 3.2 8.0 0.00 0.00 0.00 31 1009.3
20260504202031 23 166 1.6 3.2 0.00 0.00 0.00 31 1009.4
20260504201527 23 186 4.8 11.3 0.00 0.00 0.00 31 1009.5
20260504201026 23 167 3.2 4.8 0.00 0.00 0.00 31 1009.6
20260504200521 23 300 3.2 4.8 0.00 0.00 0.00 30 1009.4
20260504200019 24 269 8.0 11.3 0.00 0.00 0.00 30 1009.6
20260504195514 24 207 0.0 3.2 0.00 0.00 0.00 32 1009.8
20260504195011 24 219 3.2 8.0 0.00 0.00 0.00 31 1009.8
20260504194508 23 274 4.8 9.7 0.00 0.00 0.00 31 1009.9
20260504194003 23 178 3.2 8.0 0.00 0.00 0.00 29 1009.8
20260504193500 23 129 4.8 9.7 0.00 0.00 0.00 31 1009.9
20260504192959 23 255 6.4 9.7 0.00 0.00 0.00 31 1009.9
20260504192456 23 284 3.2 9.7 0.00 0.00 0.00 31 1010.3
20260504191955 23 259 1.6 8.0 0.00 0.00 0.00 31 1010.1
20260504191452 23 280 6.4 11.3 0.00 0.00 0.00 31 1010.1
20260504190947 23 163 1.6 8.0 0.00 0.00 0.00 35 1010.4
20260504190443 23 158 1.6 9.7 0.00 0.00 0.00 34 1010.3
20260504185940 22 245 4.8 9.7 0.00 0.00 0.00 33 1010.5
20260504185438 22 113 4.8 11.3 0.00 0.00 0.00 33 1010.5
20260504184934 23 167 3.2 4.8 0.00 0.00 0.00 30 1010.4
20260504184429 22 210 4.8 12.9 0.00 0.00 0.00 32 1010.8
20260504183925 22 208 6.4 9.7 0.00 0.00 0.00 32 1010.7
20260504183423 22 278 4.8 12.9 0.00 0.00 0.00 30 1010.8
20260504182921 22 196 0.0 4.8 0.00 0.00 0.00 33 1010.7
20260504182417 22 270 6.4 11.3 0.00 0.00 0.00 31 1011.0
20260504181914 22 353 4.8 9.7 0.00 0.00 0.00 32 1011.0
20260504181412 22 139 3.2 8.0 0.00 0.00 0.00 32 1011.1
20260504180910 22 197 3.2 8.0 0.00 0.00 0.00 31 1011.1
20260504180409 22 251 4.8 9.7 0.00 0.00 0.00 32 1011.4
20260504175907 22 177 0.0 9.7 0.00 0.00 0.00 32 1011.6
20260504175403 23 303 1.6 14.5 0.00 0.00 0.00 31 1011.3
20260504174901 22 241 1.6 3.2 0.00 0.00 0.00 31 1011.5
20260504174358 21 276 4.8 9.7 0.00 0.00 0.00 32 1011.6
20260504173855 21 270 4.8 14.5 0.00 0.00 0.00 31 1011.8
20260504173352 22 340 4.8 8.0 0.00 0.00 0.00 33 1012.0
20260504172849 22 158 0.0 8.0 0.00 0.00 0.00 36 1011.6
20260504172346 21 154 1.6 12.9 0.00 0.00 0.00 33 1011.8
20260504171841 21 170 1.6 8.0 0.00 0.00 0.00 35 1011.7
20260504171339 21 247 3.2 12.9 0.00 0.00 0.00 33 1011.9
20260504170836 21 196 1.6 8.0 0.00 0.00 0.00 33 1012.1
20260504170332 21 209 8.0 11.3 0.00 0.00 0.00 32 1012.0
20260504160251 20 180 0.0 8.0 0.00 0.00 0.00 36 1012.8
20260504150716 20 143 1.6 3.2 0.00 0.00 0.00 44 1013.6
20260504150213 19 197 3.2 3.2 0.00 0.00 0.00 45 1013.3
20260504141142 18 175 3.2 4.8 0.00 0.00 0.00 49 1013.4
20260504140639 18 174 8.0 12.9 0.00 0.00 0.00 49 1013.6
20260504140135 18 142 0.0 11.3 0.00 0.00 0.00 52 1013.3
20260504130603 16 135 0.0 8.0 0.00 0.00 0.00 56 1013.9
20260504110450 11 134 0.0 0.0 0.00 0.00 0.00 75 1014.7
20260504100413 7 136 0.0 1.6 0.00 0.00 0.00 87 1014.6
20260504081806 8 141 0.0 0.0 0.00 0.00 0.00 73 1014.8
20260504081303 8 158 0.0 0.0 0.00 0.00 0.00 71 1014.4
20260504080759 8 169 0.0 1.6 0.00 0.00 0.00 70 1014.6
20260504080255 8 136 0.0 0.0 0.00 0.00 0.00 70 1014.7
20260504070223 7 133 0.0 0.0 0.00 0.00 0.00 73 1014.5
20260504060144 7 142 0.0 0.0 0.00 0.00 0.00 70 1014.4
20260504050612 7 139 0.0 0.0 0.00 0.00 0.00 69 1014.2
20260504050109 7 144 0.0 0.0 0.00 0.00 0.00 69 1014.4
20260504045606 7 147 0.0 0.0 0.00 0.00 0.00 67 1014.3
20260504045100 7 141 0.0 0.0 0.00 0.00 0.00 67 1014.2
20260504044558 7 140 0.0 0.0 0.00 0.00 0.00 67 1014.3
20260504044055 7 138 0.0 0.0 0.00 0.00 0.00 67 1014.0
20260504043553 8 141 0.0 0.0 0.00 0.00 0.00 67 1014.3
20260504043049 7 129 0.0 0.0 0.00 0.00 0.00 66 1014.0
20260504042546 8 143 0.0 0.0 0.00 0.00 0.00 67 1014.2
20260504042043 8 135 0.0 0.0 0.00 0.00 0.00 67 1014.2
20260504041539 8 140 0.0 0.0 0.00 0.00 0.00 67 1014.1
20260504041036 7 133 0.0 0.0 0.00 0.00 0.00 66 1013.9
20260504040533 7 146 0.0 0.0 0.00 0.00 0.00 66 1013.8
20260504040030 7 140 0.0 0.0 0.00 0.00 0.00 66 1013.9